This demonstration page uses our WeatherBlox Daily Observations layout. Learn more.

Left ArrowRight Arrow

Hourly Observations for July 14, 2015

Temp ( °F °C ) Dew Point ( °F °C ) Humidity (%) Winds ( mph kmh ) Pressure ( in mb ) Visibility ( mi km ) Precip ( " mm )
12:53 am 00:53 Clear 84 28.9 57 13.9 40 40 SE 12 19 29.75 1007 10 16 0.00 0.00
1:53 am 01:53 Clear 81 27.2 58 14.4 45 45 SSE 13 20 29.74 1007 10 16 0.00 0.00
2:53 am 02:53 Clear 79 26.1 58 14.4 49 49 SSE 12 19 29.73 1007 10 16 0.00 0.00
3:53 am 03:53 Clear 77 25 57 13.9 50 50 SE 8 13 29.72 1007 10 16 0.00 0.00
4:53 am 04:53 Clear 75 23.9 58 14.4 55 55 ESE 10 17 29.72 1007 10 16 0.00 0.00
5:53 am 05:53 Clear 74 23.3 58 14.4 57 57 ESE 9 15 29.72 1006 10 16 0.00 0.00
6:53 am 06:53 Clear 72 22.2 58 14.4 61 61 ESE 7 11 29.74 1007 10 16 0.00 0.00
7:53 am 07:53 Sunny 75 23.9 58 14.4 55 55 E 6 9 29.76 1008 10 16 0.00 0.00
8:53 am 08:53 Sunny 78 25.6 58 14.4 50 50 SE 8 13 29.77 1008 10 16 0.00 0.00
9:53 am 09:53 Sunny 83 28.3 58 14.4 43 43 SE 6 9 29.77 1008 10 16 0.00 0.00
10:53 am 10:53 Sunny 88 31.1 58 14.4 36 36 SE 5 7 29.76 1008 10 16 0.00 0.00
11:53 am 11:53 Sunny 94 34.4 57 13.9 29 29 Calm 29.76 1008 10 16 0.00 0.00
12:53 pm 12:53 Sunny 98 36.7 56 13.3 24 24 VRB 6 9 29.74 1007 10 16 0.00 0.00
1:53 pm 13:53 Sunny 101 38.3 46 7.8 15 15 Calm 29.72 1007 10 16 0.00 0.00
2:53 pm 14:53 Sunny 103 39.4 47 8.3 15 15 SE 12 19 29.70 1006 10 16 0.00 0.00
3:53 pm 15:53 Sunny 103 39.4 46 7.8 15 15 ESE 12 19 29.69 1005 10 16 0.00 0.00
4:53 pm 16:53 Sunny 105 40.6 43 6.1 12 12 ESE 13 20 29.67 1005 10 16 0.00 0.00
5:53 pm 17:53 Sunny 103 39.4 42 5.6 12 12 ESE 12 19 29.65 1004 10 16 0.00 0.00
6:53 pm 18:53 Sunny 103 39.4 44 6.7 13 13 E 13 20 29.64 1004 10 16 0.00 0.00
7:53 pm 19:53 Sunny 101 38.3 43 6.1 14 14 SE 9 15 29.65 1004 10 16 0.00 0.00
8:53 pm 20:53 Sunny 96 35.6 53 11.7 23 23 SE 15 24 29.67 1005 10 16 0.00 0.00
9:53 pm 21:53 Clear 93 33.9 55 12.8 28 28 SE 17 28 29.69 1006 10 16 0.00 0.00
10:53 pm 22:53 Clear 90 32.2 57 13.9 33 33 SE 16 26 29.71 1006 10 16 0.00 0.00
11:53 pm 23:53 Clear 87 30.6 57 13.9 36 36 SE 14 22 29.73 1007 10 16 0.00 0.00

Powered by AerisWeather